| time (UTC) | temp C | wind direction | speed KPH | gust KPH | rain 1hr cm | rain 24hr cm | rain mn cm | humidity % | barometer mb |
| 20260504050008 | 11 | 55 | 22.5 | 33.8 | 0.00 | 0.00 | 0.00 | 41 | 1005.5 |
| 20260504044510 | 11 | 53 | 30.6 | 48.3 | 0.00 | 0.00 | 0.00 | 38 | 1005.3 |
| 20260504043006 | 12 | 44 | 29.0 | 49.9 | 0.00 | 0.00 | 0.00 | 41 | 1004.7 |
| 20260504041506 | 12 | 40 | 20.9 | 35.4 | 0.00 | 0.00 | 0.00 | 39 | 1004.0 |
| 20260504040007 | 12 | 17 | 16.1 | 24.1 | 0.00 | 0.00 | 0.00 | 38 | 1003.5 |
| 20260504034506 | 13 | 21 | 16.1 | 24.1 | 0.00 | 0.00 | 0.00 | 38 | 1003.1 |
| 20260504033004 | 13 | 32 | 14.5 | 25.7 | 0.00 | 0.00 | 0.00 | 39 | 1002.7 |
| 20260504031505 | 13 | 25 | 16.1 | 29.0 | 0.00 | 0.00 | 0.00 | 38 | 1002.6 |
| 20260504030004 | 13 | 44 | 17.7 | 29.0 | 0.00 | 0.00 | 0.00 | 37 | 1002.4 |
| 20260504024507 | 14 | 50 | 14.5 | 27.4 | 0.00 | 0.00 | 0.00 | 35 | 1002.4 |
| 20260504023002 | 15 | 42 | 16.1 | 24.1 | 0.00 | 0.00 | 0.00 | 33 | 1002.1 |
| 20260504021502 | 16 | 48 | 14.5 | 25.7 | 0.00 | 0.00 | 0.00 | 29 | 1002.1 |
| 20260504020002 | 17 | 44 | 19.3 | 32.2 | 0.00 | 0.00 | 0.00 | 27 | 1002.0 |
| 20260504014502 | 19 | 21 | 12.9 | 19.3 | 0.00 | 0.00 | 0.00 | 23 | 1001.9 |
| 20260504013104 | 20 | 358 | 14.5 | 20.9 | 0.00 | 0.00 | 0.00 | 20 | 1002.0 |
| 20260504011605 | 21 | 352 | 11.3 | 24.1 | 0.00 | 0.00 | 0.00 | 19 | 1002.1 |
| 20260504010101 | 21 | 328 | 12.9 | 27.4 | 0.00 | 0.00 | 0.00 | 18 | 1002.1 |
| 20260504004557 | 21 | 351 | 14.5 | 32.2 | 0.00 | 0.00 | 0.00 | 18 | 1002.2 |
| 20260504003100 | 21 | 329 | 14.5 | 29.0 | 0.00 | 0.00 | 0.00 | 18 | 1002.4 |
| 20260504001604 | 21 | 334 | 20.9 | 35.4 | 0.00 | 0.00 | 0.00 | 18 | 1002.5 |
| 20260504000054 | 21 | 315 | 20.9 | 37.0 | 0.00 | 0.00 | 0.00 | 18 | 1002.6 |
| 20260503234553 | 21 | 335 | 19.3 | 33.8 | 0.00 | 0.00 | 0.00 | 17 | 1002.7 |
| 20260503233052 | 21 | 320 | 11.3 | 30.6 | 0.00 | 0.00 | 0.00 | 18 | 1002.7 |
| 20260503231551 | 21 | 360 | 17.7 | 38.6 | 0.00 | 0.00 | 0.00 | 18 | 1002.9 |
| 20260503230050 | 21 | 319 | 19.3 | 33.8 | 0.00 | 0.00 | 0.00 | 18 | 1002.9 |
| 20260503224549 | 21 | 335 | 20.9 | 38.6 | 0.00 | 0.00 | 0.00 | 19 | 1003.1 |
| 20260503223046 | 21 | 11 | 19.3 | 35.4 | 0.00 | 0.00 | 0.00 | 18 | 1003.3 |
| 20260503221545 | 21 | 20 | 17.7 | 38.6 | 0.00 | 0.00 | 0.00 | 19 | 1003.4 |
| 20260503220050 | 21 | 300 | 25.7 | 40.2 | 0.00 | 0.00 | 0.00 | 19 | 1003.5 |
| 20260503214541 | 21 | 331 | 17.7 | 37.0 | 0.00 | 0.00 | 0.00 | 20 | 1003.7 |
| 20260503213042 | 21 | 308 | 27.4 | 41.8 | 0.00 | 0.00 | 0.00 | 20 | 1003.9 |
| 20260503211538 | 21 | 330 | 11.3 | 41.8 | 0.00 | 0.00 | 0.00 | 20 | 1004.1 |
| 20260503210038 | 21 | 329 | 16.1 | 30.6 | 0.00 | 0.00 | 0.00 | 20 | 1004.4 |
| 20260503204534 | 21 | 319 | 12.9 | 25.7 | 0.00 | 0.00 | 0.00 | 20 | 1004.6 |
| 20260503203033 | 21 | 298 | 16.1 | 33.8 | 0.00 | 0.00 | 0.00 | 20 | 1004.7 |
| 20260503201530 | 20 | 360 | 8.0 | 25.7 | 0.00 | 0.00 | 0.00 | 21 | 1004.8 |
| 20260503200027 | 20 | 336 | 16.1 | 27.4 | 0.00 | 0.00 | 0.00 | 20 | 1005.1 |
| 20260503194525 | 20 | 348 | 14.5 | 40.2 | 0.00 | 0.00 | 0.00 | 21 | 1005.5 |
| 20260503193021 | 20 | 356 | 14.5 | 27.4 | 0.00 | 0.00 | 0.00 | 21 | 1005.7 |
| 20260503191521 | 20 | 348 | 17.7 | 29.0 | 0.00 | 0.00 | 0.00 | 22 | 1005.9 |
| 20260503190022 | 20 | 331 | 11.3 | 25.7 | 0.00 | 0.00 | 0.00 | 23 | 1006.3 |
| 20260503184516 | 20 | 351 | 20.9 | 37.0 | 0.00 | 0.00 | 0.00 | 21 | 1006.3 |
| 20260503183014 | 19 | 331 | 12.9 | 24.1 | 0.00 | 0.00 | 0.00 | 21 | 1006.4 |
| 20260503181510 | 19 | 332 | 12.9 | 25.7 | 0.00 | 0.00 | 0.00 | 22 | 1006.7 |
| 20260503180017 | 18 | 351 | 14.5 | 25.7 | 0.00 | 0.00 | 0.00 | 22 | 1007.0 |
| 20260503174509 | 19 | 354 | 14.5 | 29.0 | 0.00 | 0.00 | 0.00 | 22 | 1007.1 |
| 20260503173007 | 18 | 344 | 16.1 | 29.0 | 0.00 | 0.00 | 0.00 | 23 | 1007.4 |
| 20260503171507 | 18 | 7 | 16.1 | 33.8 | 0.00 | 0.00 | 0.00 | 22 | 1007.4 |
| 20260503081630 | 7 | 187 | 3.2 | 12.9 | 0.00 | 0.00 | 0.00 | 65 | 1010.1 |
| 20260503080112 | 8 | 187 | 8.0 | 12.9 | 0.00 | 0.00 | 0.00 | 65 | 1010.2 |
| 20260503071554 | 9 | 288 | 11.3 | 14.5 | 0.00 | 0.00 | 0.00 | 61 | 1010.3 |